Briefing drone pour Chabeuil

Rechercher une autre localisation

Conditions de vol :


Nous sommes le : Mardi 29 septembre 2020
Il est 09:43 UTC (11:43 LT)

Lever de soleil : 05:09 UTC (07:09 LT)
Coucher de soleil : 17:50 UTC (19:50 LT)

Météo

L'essentiel des conditions de vol

VIGILANCE MÉTÉO FRANCE - Drôme (26)
Pas de vigilances particulieres
CARTES DES FRONTS
METAR de LFLU
LFLU 290930Z AUTO 36016KT CAVOK 17/10 Q1019

Date d'émission: 29/09/2020
Heure d'émission: 09:30 UTC
Vent: 360° pour 16 KT (30 km/h)
Visibilité horizontale: > 10 km
Plafond : Plafond et visibilité OK (CAVOK)
Température: 17 °C
Point de rosée: 10 °C
Humidité: 63%
Pression (QNH): 1019 hPa
Prévision 24h pour Valence (6 km)
Vent : 19° pour 1 KT (4 km/h)
Temperature Maxi: 9 °C
Temperature Min: 9 °C
Humidité : 90%
Condition : Peu nuageux



Warning: count(): Parameter must be an array or an object that implements Countable in /homepages/6/d509196549/htdocs/droneoxygene/briefing.php on line 743
WEBCAM POUR CHABEUIL

Réglementation

Voler en sécurité

CARTES AERONAUTIQUE 1/500.000
CARTES VAC (LFLU)
SUP AIP




Chargement des AIP...
NOTAM (CHABEUIL + Terrain à proximité / FIR )




Chargement des NOTAMS...
CONTACT PREFECTURE 26
Drôme (26) : ddt-sdsr@drome.gouv.fr


Avertissement : Les données mises à disposition sont indicatives. Oxygène Drone ne pourra être tenu responsable de dégâts causés aux biens et aux personnes.